Simultaneous Nadir Overpasses (SNOs) Predictions

Prediction of SNOs between TERRA and METOP-C Satellite Orbit:

Table of predicted SNOs for the next 14.0 days since TLE Epoch: 5/7/2022
Index Date (TERRA) Time (TERRA) Lat,Lon (TERRA) SZA (TERRA ) Date (METOP-C) Time (METOP-C) Lat,Lon (METOP-C) SZA (METOP-C ) Distance(km) Time Diff (sec)
1 05/07/2022 05:05:16 80.05, 132.87 64.61 05/07/2022 05:04:30 80.44, 131.21 64.79 54.11 46
2 05/07/2022 05:54:04 -81.20, -46.79 113.23 05/07/2022 05:54:29 -81.20, -46.90 113.23 1.98 25
3 05/10/2022 00:38:47 81.18,-148.21 65.99 05/10/2022 00:38:11 81.18,-148.39 65.96 3.06 36
4 05/10/2022 01:28:13 -81.20, 19.70 113.98 05/10/2022 01:28:49 -81.20, 19.69 113.96 0.33 36
5 05/12/2022 20:12:55 81.20, -81.52 65.32 05/12/2022 20:12:30 81.19, -81.53 65.30 0.58 25
6 05/12/2022 21:02:21 -81.22, 86.42 114.65 05/12/2022 21:03:08 -81.22, 86.60 114.61 3.14 47
7 05/15/2022 15:47:03 81.18, -15.33 64.60 05/15/2022 15:46:50 81.18, -15.50 64.58 2.83 13
8 05/15/2022 16:36:29 -81.20, 152.63 115.36 05/15/2022 16:37:28 -81.21, 152.70 115.32 1.22 59
9 05/18/2022 11:21:10 81.20, 51.46 64.02 05/18/2022 11:21:08 81.20, 51.63 64.03 2.79 2



Historial Predications of SNOs between TERRA and METOP-C
